Home > Weather > Nouadhibou > Past weeks

Flag for Mauritania Weather for the Past 2 Weeks in Nouadhibou, Mauritania

Now
79 °F

Clear.


Feels Like: 79 °F
Forecast: N/A
Wind: 13 mph from Northwest

Location: Nouadhibou Airport

Current Time: Feb 6, 2016 at 6:38:42 PM

Latest Report: Feb 6, 2016 at 6:00 PM


Visibility: 5 mi

Pressure: 30.04 "Hg

Humidity: 37%

Dew point: 50 °F

Location of NouadhibouLocation

Historic Weather in Nouadhibou — Graph

°F

Nouadhibou Temperature Yesterday

Maximum temperature yesterday: 86 °F (at 3:00 PM)
Minimum temperature yesterday: 63 °F (at 8:00 AM)
Average temperature yesterday: 73 °F

High & Low Weather Summary for the Past Weeks

 TemperatureHumidityPressure
High88 °F (Jan 23, 4:00 PM)88% (Jan 25, 8:00 PM)30.24 "Hg (Jan 25, 8:00 PM)
Low63 °F (Jan 29, 8:00 AM)12% (Feb 4, 4:00 PM)29.98 "Hg (Feb 5, 4:00 PM)
Average72 °F46%30.11 "Hg
* Reported Jan 22 5:00 PM — Feb 6 5:00 PM, Nouadhibou, Weather by CustomWeather, © 2016

Note: Actual official high and low records may vary slightly from our data, if they occured in-between our weather recording intervals... More about our weather records

Advertising

Nouadhibou Weather History for the Previous 24 Hours

 ConditionsComfort  
Time TempWeatherWind HumidityBarometerVisibility
5:00 PM
Sat, Feb 6
81 °FClear.12 mph30%30.01 "Hg5 mi
4:00 PM82 °FClear.7 mph35%30.01 "Hg5 mi
3:00 PM86 °FClear.9 mph18%30.04 "Hg5 mi
2:00 PM86 °FClear.9 mph15%30.04 "Hg5 mi
1:00 PM84 °FClear.9 mph35%30.07 "Hg5 mi
12:00 PM77 °FClear.9 mph44%30.09 "Hg5 mi
11:00 AM73 °FClear.9 mph47%30.09 "Hg5 mi
10:00 AM70 °FClear.9 mph53%30.09 "Hg5 mi
9:00 AM66 °FClear.9 mph56%30.07 "Hg5 mi
8:00 AM63 °FClear.9 mph52%30.07 "Hg5 mi
7:00 AM64 °FPassing clouds.9 mph56%30.04 "Hg4 mi
6:00 AM63 °FPassing clouds.9 mph64%30.04 "Hg4 mi
5:00 AM64 °FPassing clouds.N/A60%30.04 "Hg4 mi
4:00 AM68 °FPassing clouds.No wind49%30.04 "Hg4 mi
3:00 AM70 °FClear.12 mph35%30.04 "Hg4 mi
2:00 AM70 °FClear.14 mph38%30.04 "Hg4 mi
1:00 AM68 °FClear.15 mph43%30.07 "Hg4 mi
12:00 AM68 °FClear.14 mph46%30.07 "Hg4 mi
11:00 PM
Fri, Feb 5
70 °FPassing clouds.No wind43%30.07 "Hg4 mi
10:00 PM72 °FClear.12 mph36%30.07 "Hg4 mi
9:00 PM73 °FClear.10 mph33%30.04 "Hg4 mi
8:00 PM73 °FClear.9 mph57%30.01 "Hg4 mi
7:00 PM75 °FClear.8 mph54%30.01 "Hg4 mi
6:00 PM75 °FClear.12 mph61%30.01 "Hg4 mi
Weather by CustomWeather, © 2016

See weather overviewHow to use our weather pages